tDAR Logo tDAR digital antiquity

California Department of Forestry 1948 Aerial Photos: Flightline 14 (Humboldt County)

Creator(s): California Department of Forestry

Year: 1948

» Downloads & Basic Metadata

Summary

A series of aerial photos taken from 1947 to 1948 by the California Department of Forestry in Humboldt County.


Cite this Record

California Department of Forestry 1948 Aerial Photos: Flightline 14 (Humboldt County). California Department of Forestry. 1948. Humboldt State University, Cultural Resources Facility ( tDAR id: 370091) ; doi:10.6067/XCV8MW2FQG





Keywords


Temporal Coverage

Calendar Date: 1947 to 1948


Spatial Coverage

min long: -124.662; min lat: 39.935 ; max long: -123.311; max lat: 42.115 ;

File Information

  Name Size Creation Date Date Uploaded Access
a48-hum-cdf2-14-001.jpg 3.79mb Oct 28, 2011 1:44:22 PM Public
a48-hum-cdf2-14-002.jpg 3.90mb Oct 28, 2011 1:44:37 PM Public
a48-hum-cdf2-14-003.jpg 3.54mb Oct 28, 2011 1:45:48 PM Public
a48-hum-cdf2-14-004.jpg 3.76mb Oct 28, 2011 1:46:02 PM Public
a48-hum-cdf2-14-005.jpg 3.98mb Oct 28, 2011 1:47:03 PM Public
a48-hum-cdf2-14-006.jpg 4.26mb Oct 28, 2011 1:47:21 PM Public
a48-hum-cdf2-14-007.jpg 3.72mb Oct 28, 2011 1:47:38 PM Public
a48-hum-cdf2-14-008.jpg 3.45mb Oct 28, 2011 1:48:29 PM Public
a48-hum-cdf2-14-009.jpg 3.69mb Oct 28, 2011 1:49:50 PM Public
a48-hum-cdf2-14-010.jpg 3.94mb Oct 28, 2011 1:50:05 PM Public
a48-hum-cdf2-14-011.jpg 4.42mb Oct 28, 2011 1:50:22 PM Public
a48-hum-cdf2-14-012.jpg 4.30mb Oct 28, 2011 1:50:41 PM Public
a48-hum-cdf2-14-013.jpg 4.12mb Oct 28, 2011 1:50:57 PM Public
a48-hum-cdf2-14-014.jpg 3.66mb Oct 28, 2011 1:52:03 PM Public
a48-hum-cdf2-14-015.jpg 3.82mb Oct 28, 2011 1:52:21 PM Public
a48-hum-cdf2-14-016.jpg 4.12mb Oct 28, 2011 1:52:37 PM Public
a48-hum-cdf2-14-017.jpg 4.21mb Oct 28, 2011 1:52:54 PM Public
a48-hum-cdf2-14-018.jpg 4.35mb Oct 28, 2011 1:53:40 PM Public
a48-hum-cdf2-14-019.jpg 4.21mb Oct 28, 2011 1:53:56 PM Public
a48-hum-cdf2-14-020.jpg 4.18mb Oct 28, 2011 1:54:56 PM Public
a48-hum-cdf2-14-021.jpg 4.37mb Oct 28, 2011 1:55:14 PM Public
a48-hum-cdf2-14-022.jpg 4.39mb Oct 28, 2011 1:55:31 PM Public
a48-hum-cdf2-14-023.jpg 4.74mb Oct 28, 2011 1:55:49 PM Public
a48-hum-cdf2-14-024.jpg 4.90mb Oct 28, 2011 1:57:40 PM Public
a48-hum-cdf2-14-025.jpg 4.66mb Oct 28, 2011 1:57:46 PM Public
a48-hum-cdf2-14-026.jpg 4.79mb Oct 28, 2011 1:57:51 PM Public
a48-hum-cdf2-14-027.jpg 4.95mb Oct 28, 2011 1:57:57 PM Public
a48-hum-cdf2-14-028.jpg 4.98mb Oct 28, 2011 1:58:27 PM Public
a48-hum-cdf2-14-029.jpg 4.74mb Oct 28, 2011 1:59:13 PM Public
a48-hum-cdf2-14-030.jpg 4.32mb Oct 28, 2011 1:59:44 PM Public
a48-hum-cdf2-14-031.jpg 3.88mb Oct 28, 2011 1:59:51 PM Public
a48-hum-cdf2-14-032.jpg 3.78mb Oct 28, 2011 1:59:56 PM Public
a48-hum-cdf2-14-033.jpg 3.90mb Oct 28, 2011 2:00:02 PM Public
a48-hum-cdf2-14-034.jpg 4.19mb Oct 28, 2011 2:00:07 PM Public
a48-hum-cdf2-14-035.jpg 4.42mb Oct 28, 2011 2:00:45 PM Public
a48-hum-cdf2-14-036.jpg 4.84mb Oct 28, 2011 2:01:16 PM Public
a48-hum-cdf2-14-037.jpg 4.89mb Oct 28, 2011 2:02:06 PM Public
a48-hum-cdf2-14-038.jpg 4.97mb Oct 28, 2011 2:02:15 PM Public
a48-hum-cdf2-14-039.jpg 4.54mb Oct 28, 2011 2:02:22 PM Public
a48-hum-cdf2-14-040.jpg 4.14mb Oct 28, 2011 2:02:27 PM Public
a48-hum-cdf2-14-041.jpg 3.74mb Oct 28, 2011 2:02:38 PM Public
a48-hum-cdf2-14-042.jpg 3.82mb Oct 28, 2011 2:02:51 PM Public
a48-hum-cdf2-14-043.jpg 4.53mb Oct 28, 2011 2:02:57 PM Public
a48-hum-cdf2-14-044.jpg 5.02mb Oct 28, 2011 2:03:06 PM Public
a48-hum-cdf2-14-045.jpg 4.84mb Oct 28, 2011 2:03:21 PM Public
a48-hum-cdf2-14-046.jpg 4.71mb Oct 28, 2011 2:03:34 PM Public
a48-hum-cdf2-14-047.jpg 4.07mb Oct 28, 2011 2:03:47 PM Public
a48-hum-cdf2-14-048.jpg 3.42mb Oct 28, 2011 2:03:58 PM Public
a48-hum-cdf2-14-049.jpg 3.36mb Oct 28, 2011 2:04:24 PM Public
a48-hum-cdf2-14-050.jpg 3.33mb Oct 28, 2011 2:05:25 PM Public
a48-hum-cdf2-14-051.jpg 3.59mb Oct 28, 2011 2:06:58 PM Public
a48-hum-cdf2-14-052.jpg 4.00mb Oct 28, 2011 2:07:36 PM Public
a48-hum-cdf2-14-053.jpg 4.49mb Oct 28, 2011 2:08:09 PM Public
a48-hum-cdf2-14-060.jpg 4.70mb Oct 28, 2011 2:08:21 PM Public
a48-hum-cdf2-14-061.jpg 4.33mb Oct 28, 2011 2:08:28 PM Public
a48-hum-cdf2-14-062.jpg 3.42mb Oct 28, 2011 2:08:33 PM Public
a48-hum-cdf2-14-063.jpg 3.25mb Oct 28, 2011 2:08:40 PM Public
a48-hum-cdf2-14-064.jpg 3.35mb Oct 28, 2011 2:08:54 PM Public
a48-hum-cdf2-14-065.jpg 3.37mb Oct 28, 2011 2:09:00 PM Public
a48-hum-cdf2-14-066.jpg 3.26mb Oct 28, 2011 2:09:05 PM Public
a48-hum-cdf2-14-067.jpg 3.45mb Oct 28, 2011 2:09:12 PM Public
a48-hum-cdf2-14-068.jpg 3.19mb Oct 28, 2011 2:09:25 PM Public
a48-hum-cdf2-14-069.jpg 3.07mb Oct 28, 2011 2:11:06 PM Public
a48-hum-cdf2-14-070.jpg 2.92mb Oct 28, 2011 2:11:26 PM Public
a48-hum-cdf2-14-071.jpg 3.55mb Oct 28, 2011 2:11:34 PM Public
a48-hum-cdf2-14-072.jpg 3.87mb Oct 28, 2011 2:11:39 PM Public
a48-hum-cdf2-14-073.jpg 4.70mb Oct 28, 2011 2:11:44 PM Public
a48-hum-cdf2-14-074.jpg 4.95mb Oct 28, 2011 2:11:51 PM Public
a48-hum-cdf2-14-075.jpg 5.72mb Oct 28, 2011 2:12:30 PM Public
a48-hum-cdf2-14-076.jpg 5.13mb Oct 28, 2011 2:14:43 PM Public
a48-hum-cdf2-14-077.jpg 4.46mb Oct 28, 2011 2:16:01 PM Public
a48-hum-cdf2-14-078.jpg 3.99mb Oct 28, 2011 2:17:55 PM Public
a48-hum-cdf2-14-079.jpg 3.72mb Oct 28, 2011 2:18:03 PM Public
a48-hum-cdf2-14-080.jpg 3.75mb Oct 28, 2011 2:18:10 PM Public
a48-hum-cdf2-14-081.jpg 3.64mb Oct 28, 2011 2:18:19 PM Public
a48-hum-cdf2-14-082.jpg 3.65mb Oct 28, 2011 2:18:38 PM Public
a48-hum-cdf2-14-083.jpg 3.67mb Oct 28, 2011 2:18:47 PM Public
a48-hum-cdf2-14-084.jpg 3.74mb Oct 28, 2011 2:18:56 PM Public
a48-hum-cdf2-14-085.jpg 3.69mb Oct 28, 2011 2:19:05 PM Public
a48-hum-cdf2-14-086.jpg 3.60mb Oct 28, 2011 2:19:14 PM Public
a48-hum-cdf2-14-087.jpg 3.49mb Oct 28, 2011 2:19:23 PM Public
a48-hum-cdf2-14-088.jpg 3.37mb Oct 28, 2011 2:19:41 PM Public
a48-hum-cdf2-14-089.jpg 3.04mb Oct 28, 2011 2:19:49 PM Public
a48-hum-cdf2-14-090.jpg 3.39mb Oct 28, 2011 2:19:58 PM Public
a48-hum-cdf2-14-091.jpg 3.84mb Oct 28, 2011 2:20:07 PM Public
a48-hum-cdf2-14-092.jpg 4.41mb Oct 28, 2011 2:20:15 PM Public
a48-hum-cdf2-14-099.jpg 4.31mb Oct 28, 2011 2:20:26 PM Public
a48-hum-cdf2-14-100.jpg 4.69mb Oct 28, 2011 2:20:40 PM Public
a48-hum-cdf2-14-101.jpg 5.41mb Oct 28, 2011 2:21:24 PM Public
a48-hum-cdf2-14-102.jpg 5.22mb Oct 28, 2011 2:22:22 PM Public
a48-hum-cdf2-14-103.jpg 4.98mb Oct 28, 2011 2:26:18 PM Public
a48-hum-cdf2-14-104.jpg 4.42mb Oct 28, 2011 2:26:31 PM Public
a48-hum-cdf2-14-105.jpg 3.80mb Oct 28, 2011 2:26:39 PM Public
a48-hum-cdf2-14-106.jpg 3.32mb Oct 28, 2011 2:28:21 PM Public
a48-hum-cdf2-14-107.jpg 3.26mb Oct 28, 2011 2:29:07 PM Public
a48-hum-cdf2-14-108.jpg 3.33mb Oct 28, 2011 2:29:17 PM Public
a48-hum-cdf2-14-109.jpg 4.00mb Oct 28, 2011 2:30:17 PM Public
a48-hum-cdf2-14-110.jpg 4.30mb Oct 28, 2011 2:30:32 PM Public
a48-hum-cdf2-14-111.jpg 4.73mb Oct 28, 2011 2:30:40 PM Public
a48-hum-cdf2-14-112.jpg 4.85mb Oct 28, 2011 2:33:45 PM Public
a48-hum-cdf2-14-113.jpg 5.14mb Oct 28, 2011 2:33:58 PM Public
a48-hum-cdf2-14-114.jpg 4.98mb Oct 28, 2011 2:34:09 PM Public
a48-hum-cdf2-14-115.jpg 4.71mb Oct 28, 2011 2:34:17 PM Public
a48-hum-cdf2-14-116.jpg 4.58mb Oct 28, 2011 2:34:24 PM Public
a48-hum-cdf2-14-117.jpg 4.46mb Oct 28, 2011 2:34:47 PM Public
a48-hum-cdf2-14-118.jpg 4.52mb Oct 28, 2011 2:34:54 PM Public
a48-hum-cdf2-14-119.jpg 4.54mb Oct 28, 2011 2:35:03 PM Public
a48-hum-cdf2-14-120.jpg 4.26mb Oct 28, 2011 2:35:09 PM Public
a48-hum-cdf2-14-121.jpg 4.00mb Oct 28, 2011 2:35:16 PM Public
a48-hum-cdf2-14-122.jpg 3.34mb Oct 28, 2011 2:35:25 PM Public
a48-hum-cdf2-14-123.jpg 3.58mb Oct 28, 2011 2:36:10 PM Public
a48-hum-cdf2-14-124.jpg 3.89mb Oct 28, 2011 2:36:19 PM Public
a48-hum-cdf2-14-125.jpg 4.28mb Oct 28, 2011 2:36:25 PM Public
a48-hum-cdf2-14-126.jpg 4.94mb Oct 28, 2011 2:36:32 PM Public
a48-hum-cdf2-14-127.jpg 4.18mb Oct 28, 2011 2:36:38 PM Public
a48-hum-cdf2-14-128.jpg 4.27mb Oct 28, 2011 2:36:48 PM Public
a48-hum-cdf2-14-129.jpg 4.19mb Oct 28, 2011 2:37:02 PM Public
a48-hum-cdf2-14-130.jpg 4.71mb Oct 28, 2011 2:37:10 PM Public
a48-hum-cdf2-14-131.jpg 4.68mb Oct 28, 2011 2:37:18 PM Public
a48-hum-cdf2-14-132.jpg 4.42mb Oct 28, 2011 2:37:25 PM Public
a48-hum-cdf2-14-133.jpg 4.64mb Oct 28, 2011 2:37:32 PM Public
a48-hum-cdf2-14-135.jpg 5.53mb Oct 28, 2011 2:38:03 PM Public
a48-hum-cdf2-14-136.jpg 5.77mb Oct 28, 2011 2:39:01 PM Public
a48-hum-cdf2-14-137.jpg 5.94mb Oct 28, 2011 2:39:10 PM Public
a48-hum-cdf2-14-138.jpg 5.79mb Oct 28, 2011 2:39:18 PM Public
a48-hum-cdf2-14-139.jpg 5.46mb Oct 28, 2011 2:39:24 PM Public
a48-hum-cdf2-14-140.jpg 5.70mb Oct 28, 2011 2:39:30 PM Public
a48-hum-cdf2-14-141.jpg 5.66mb Oct 28, 2011 2:39:38 PM Public
a48-hum-cdf2-14-142.jpg 5.42mb Oct 28, 2011 2:40:03 PM Public
a48-hum-cdf2-14-143.jpg 5.54mb Oct 28, 2011 2:40:24 PM Public
a48-hum-cdf2-14-144.jpg 5.74mb Oct 28, 2011 2:40:36 PM Public
a48-hum-cdf2-14-145.jpg 5.80mb Oct 28, 2011 2:40:52 PM Public
a48-hum-cdf2-14-146.jpg 5.76mb Oct 28, 2011 2:41:51 PM Public
a48-hum-cdf2-14-147.jpg 5.84mb Oct 28, 2011 2:44:07 PM Public
a48-hum-cdf2-14-148.jpg 5.75mb Oct 28, 2011 2:44:50 PM Public
a48-hum-cdf2-14-149.jpg 5.60mb Oct 28, 2011 2:47:59 PM Public
a48-hum-cdf2-14-150.jpg 5.29mb Oct 28, 2011 2:51:31 PM Public
a48-hum-cdf2-14-151.jpg 5.18mb Oct 28, 2011 2:51:49 PM Public
a48-hum-cdf2-14-152.jpg 5.22mb Oct 28, 2011 2:51:56 PM Public
a48-hum-cdf2-14-154.jpg 5.61mb Oct 28, 2011 2:52:07 PM Public
a48-hum-cdf2-14-155.jpg 5.60mb Oct 28, 2011 2:52:17 PM Public
a48-hum-cdf2-14-156.jpg 5.45mb Oct 28, 2011 2:52:54 PM Public
a48-hum-cdf2-14-157.jpg 4.93mb Oct 28, 2011 2:53:25 PM Public
a48-hum-cdf2-14-158.jpg 4.71mb Oct 28, 2011 2:53:37 PM Public
a48-hum-cdf2-14-159.jpg 4.41mb Oct 28, 2011 2:53:52 PM Public
a48-hum-cdf2-14-160.jpg 4.76mb Oct 28, 2011 2:54:04 PM Public
a48-hum-cdf2-14-161.jpg 5.02mb Oct 28, 2011 2:54:22 PM Public
a48-hum-cdf2-14-162.jpg 4.96mb Oct 28, 2011 2:54:36 PM Public
a48-hum-cdf2-14-163.jpg 4.68mb Oct 28, 2011 2:54:54 PM Public
a48-hum-cdf2-14-164.jpg 4.90mb Oct 28, 2011 2:55:45 PM Public
a48-hum-cdf2-14-165.jpg 4.74mb Oct 28, 2011 2:56:33 PM Public
a48-hum-cdf2-14-166.jpg 4.62mb Oct 28, 2011 2:56:48 PM Public
a48-hum-cdf2-14-167.jpg 4.62mb Oct 28, 2011 2:57:28 PM Public
a48-hum-cdf2-14-168.jpg 4.79mb Oct 28, 2011 3:01:09 PM Public
a48-hum-cdf2-14-169.jpg 4.45mb Oct 28, 2011 3:01:26 PM Public
a48-hum-cdf2-14-170.jpg 4.33mb Oct 28, 2011 3:01:55 PM Public
a48-hum-cdf2-14-171.jpg 5.15mb Oct 28, 2011 3:02:13 PM Public
a48-hum-cdf2-14-172.jpg 4.81mb Oct 28, 2011 3:02:33 PM Public
a48-hum-cdf2-14-173.jpg 4.73mb Oct 28, 2011 3:02:41 PM Public
a48-hum-cdf2-14-174.jpg 4.70mb Oct 28, 2011 3:02:53 PM Public
a48-hum-cdf2-14-175.jpg 4.62mb Oct 28, 2011 3:04:43 PM Public
a48-hum-cdf2-14-176.jpg 4.51mb Oct 28, 2011 3:04:53 PM Public
a48-hum-cdf2-14-177.jpg 4.54mb Oct 28, 2011 3:05:03 PM Public
a48-hum-cdf2-14-187.jpg 4.16mb Oct 28, 2011 3:05:16 PM Public
a48-hum-cdf2-14-188.jpg 4.25mb Oct 28, 2011 3:05:24 PM Public
a48-hum-cdf2-14-189.jpg 4.38mb Oct 28, 2011 3:05:56 PM Public
a48-hum-cdf2-14-190.jpg 4.30mb Oct 28, 2011 3:06:17 PM Public
a48-hum-cdf2-14-191.jpg 4.51mb Oct 28, 2011 3:06:34 PM Public
a48-hum-cdf2-14-192.jpg 4.55mb Oct 28, 2011 3:07:13 PM Public
a48-hum-cdf2-14-193.jpg 4.51mb Oct 28, 2011 3:07:32 PM Public
a48-hum-cdf2-14-194.jpg 4.77mb Oct 28, 2011 3:07:43 PM Public
a48-hum-cdf2-14-195.jpg 4.64mb Oct 28, 2011 3:07:54 PM Public
a48-hum-cdf2-14-196.jpg 4.85mb Oct 28, 2011 3:08:12 PM Public
a48-hum-cdf2-14-197.jpg 4.77mb Oct 28, 2011 3:08:23 PM Public
a48-hum-cdf2-14-198.jpg 4.73mb Oct 28, 2011 3:09:14 PM Public
a48-hum-cdf2-14-199.jpg 4.53mb Oct 28, 2011 3:09:50 PM Public
a48-hum-cdf2-14-200.jpg 4.54mb Oct 28, 2011 3:10:09 PM Public
a48-hum-cdf2-14-201.jpg 4.60mb Oct 28, 2011 3:10:29 PM Public
a48-hum-cdf2-14-202.jpg 4.83mb Oct 28, 2011 3:10:43 PM Public
a48-hum-cdf2-14-203.jpg 4.75mb Oct 28, 2011 3:11:01 PM Public
a48-hum-cdf2-14-204.jpg 4.73mb Oct 28, 2011 3:11:08 PM Public
a48-hum-cdf2-14-205.jpg 4.60mb Oct 28, 2011 3:13:31 PM Public
a48-hum-cdf2-14-206.jpg 4.84mb Oct 28, 2011 3:13:38 PM Public
a48-hum-cdf2-14-207.jpg 4.58mb Oct 28, 2011 3:13:45 PM Public
a48-hum-cdf2-14-208.jpg 4.56mb Oct 28, 2011 3:13:53 PM Public
a48-hum-cdf2-14-209.jpg 4.60mb Oct 28, 2011 3:14:07 PM Public
a48-hum-cdf2-14-210.jpg 4.50mb Oct 28, 2011 3:14:14 PM Public
flightline-14e.jpg 1.14mb Nov 3, 2011 12:22:22 PM Public
flightline-14w.jpg 887.19kb Nov 3, 2011 12:22:27 PM Public
Arizona State University The Andrew W. Mellon Foundation National Science Foundation National Endowment for the Humanities Society for American Archaeology Archaeological Institute of America